N3HCP Weather Reports


time (UTC)temp
C
wind
direction
speed
KPH
gust
KPH
rain 1hr
cm
rain 24hr
cm
rain mn
cm
humidity
%
barometer
mb
20260506231529 17 184 1.6 12.9 0.03 0.79 0.79 93 1006.4
20260506231015 17 252 1.6 8.0 0.03 0.79 0.79 93 1006.2
20260506230515 17 229 0.0 6.4 0.03 0.79 0.79 93 1006.2
20260506230013 17 222 0.0 8.0 0.03 0.79 0.79 92 1006.1
20260506225517 17 224 0.0 11.3 0.03 0.79 0.79 92 1006.2
20260506225011 17 215 1.6 11.3 0.03 0.79 0.79 92 1006.0
20260506224510 17 241 0.0 1.6 0.03 0.79 0.79 91 1005.9
20260506224009 17 233 0.0 3.2 0.03 0.79 0.79 91 1005.8
20260506223509 18 160 0.0 6.4 0.03 0.79 0.79 90 1005.8
20260506223008 18 113 0.0 4.8 0.00 0.76 0.76 89 1005.9
20260506222508 18 243 0.0 3.2 0.00 0.76 0.76 89 1005.9
20260506222008 18 243 0.0 1.6 0.00 0.76 0.76 88 1006.0
20260506221507 18 213 0.0 1.6 0.00 0.76 0.76 88 1005.9
20260506221010 18 249 0.0 1.6 0.00 0.76 0.76 87 1005.8
20260506220507 18 233 0.0 4.8 0.00 0.76 0.76 87 1005.8
20260506220006 18 237 0.0 1.6 0.00 0.76 0.76 87 1005.9
20260506215507 18 248 0.0 1.6 0.00 0.76 0.76 88 1005.6
20260506215104 18 231 0.0 9.7 0.00 0.76 0.76 87 1005.8
20260506214502 18 215 1.6 9.7 0.00 0.76 0.76 86 1005.6
20260506214001 18 236 0.0 4.8 0.00 0.76 0.76 87 1005.5
20260506213502 18 155 0.0 4.8 0.00 0.76 0.76 87 1005.5
20260506213139 18 197 0.0 4.8 0.00 0.76 0.76 87 1005.5
20260506212601 18 230 0.0 4.8 0.00 0.76 0.76 87 1005.6
20260506212059 18 230 0.0 6.4 0.00 0.76 0.76 87 1005.7
20260506211623 19 77 0.0 8.0 0.00 0.76 0.76 86 1005.5
20260506211058 19 255 0.0 6.4 0.00 0.76 0.76 86 1005.5
20260506210557 19 158 1.6 6.4 0.00 0.76 0.76 85 1005.5
20260506205555 20 204 0.0 4.8 0.00 0.76 0.76 84 1005.2
20260506205055 20 223 0.0 11.3 0.00 0.76 0.76 85 1005.2
20260506204558 20 267 1.6 11.3 0.00 0.76 0.76 84 1005.3
20260506204052 20 203 1.6 11.3 0.00 0.76 0.76 84 1005.1
20260506203551 20 210 0.0 14.5 0.00 0.76 0.76 86 1005.2
20260506203052 19 156 0.0 6.4 0.00 0.76 0.76 87 1005.1
20260506202548 19 256 1.6 4.8 0.00 0.76 0.76 87 1005.2
20260506202052 18 238 0.0 4.8 0.00 0.76 0.76 88 1005.1
20260506201558 18 214 0.0 6.4 0.00 0.76 0.76 89 1005.1
20260506201048 18 243 1.6 6.4 0.00 0.76 0.76 88 1005.2
20260506200545 18 206 0.0 4.8 0.00 0.76 0.76 88 1005.2
20260506200045 18 241 0.0 8.0 0.00 0.76 0.76 88 1005.1
20260506195544 18 248 1.6 9.7 0.00 0.76 0.76 87 1005.2
20260506195044 18 208 1.6 9.7 0.00 0.76 0.76 87 1005.3
20260506194555 18 200 0.0 6.4 0.00 0.76 0.76 88 1005.3
20260506194045 18 161 1.6 6.4 0.00 0.76 0.76 86 1005.4
20260506193644 18 233 0.0 8.0 0.00 0.76 0.76 86 1005.4
20260506193041 19 233 1.6 12.9 0.00 0.76 0.76 86 1005.4
20260506192543 19 202 0.0 12.9 0.00 0.76 0.76 87 1005.2
20260506192038 18 257 1.6 12.9 0.00 0.76 0.76 88 1005.2
20260506191544 18 132 0.0 12.9 0.00 0.76 0.76 88 1005.3
20260506191036 18 253 0.0 8.0 0.00 0.76 0.76 89 1005.4
20260506190535 18 230 0.0 12.9 0.00 0.76 0.76 89 1005.3
20260506190136 18 223 4.8 12.9 0.00 0.76 0.76 88 1005.5
20260506185532 18 158 1.6 4.8 0.00 0.76 0.76 89 1005.6
20260506185035 18 249 1.6 9.7 0.00 0.76 0.76 90 1005.6
20260506184531 18 205 1.6 14.5 0.00 0.76 0.76 90 1005.7
20260506184032 17 210 1.6 14.5 0.00 0.76 0.76 91 1005.8
20260506183530 17 260 1.6 8.0 0.00 0.76 0.76 93 1005.8
20260506183039 17 200 0.0 4.8 0.00 0.76 0.76 94 1005.9
20260506182529 16 207 0.0 4.8 0.00 0.76 0.76 95 1005.8
20260506182027 16 204 0.0 8.0 0.00 0.76 0.76 95 1006.0
20260506181528 16 170 1.6 8.0 0.00 0.76 0.76 95 1006.0
20260506181025 16 243 0.0 9.7 0.00 0.76 0.76 95 1006.1
20260506180528 16 184 1.6 12.9 0.00 0.76 0.76 94 1006.0
20260506180027 16 209 3.2 12.9 0.00 0.76 0.76 94 1006.1
20260506175524 16 227 0.0 8.0 0.00 0.76 0.76 94 1006.2
20260506175024 16 257 1.6 9.7 0.00 0.76 0.76 94 1006.1
20260506174523 16 140 1.6 9.7 0.00 0.76 0.76 94 1006.1
20260506174022 16 163 4.8 9.7 0.00 0.76 0.76 94 1006.1
20260506173523 16 158 1.6 11.3 0.00 0.76 0.76 94 1006.2
20260506173023 16 195 3.2 11.3 0.00 0.76 0.76 94 1006.1
20260506172521 16 187 3.2 9.7 0.00 0.76 0.76 94 1006.1
20260506172018 16 143 3.2 9.7 0.00 0.76 0.76 94 1006.1
20260506171525 16 253 3.2 11.3 0.00 0.76 0.76 94 1006.0
20260506171021 16 210 1.6 8.0 0.00 0.76 0.76 95 1006.0
20260506170519 16 180 1.6 14.5 0.00 0.76 0.76 95 1005.9
20260506170018 15 166 4.8 14.5 0.00 0.76 0.76 95 1005.9
20260506165514 15 205 1.6 8.0 0.00 0.76 0.76 95 1006.1
20260506165012 15 110 3.2 8.0 0.00 0.76 0.76 95 1006.0
20260506164510 15 169 1.6 11.3 0.00 0.76 0.76 95 1006.0
20260506164016 15 161 3.2 11.3 0.03 0.76 0.76 95 1006.0
20260506163509 15 181 3.2 9.7 0.05 0.76 0.76 95 1005.9
20260506163008 15 155 1.6 11.3 0.05 0.76 0.76 95 1006.0
20260506162507 15 202 4.8 11.3 0.08 0.76 0.76 95 1006.1
20260506162008 15 177 3.2 12.9 0.10 0.76 0.76 95 1006.3
20260506161508 15 169 3.2 14.5 0.13 0.76 0.76 95 1006.3
20260506161006 15 176 4.8 0.0 0.00 0.00 0.76 95 1006.1
20260506160506 15 140 3.2 12.9 0.20 0.76 0.76 95 1006.0
20260506160005 15 176 3.2 12.9 0.23 0.76 0.76 96 1005.9
20260506155504 15 142 4.8 11.3 0.25 0.76 0.76 96 1005.9
20260506155003 15 136 1.6 12.9 0.28 0.76 0.76 96 1005.8
20260506154502 15 138 3.2 12.9 0.30 0.76 0.76 96 1005.9
20260506154002 15 134 3.2 11.3 0.28 0.71 0.71 96 1005.6
20260506153601 15 129 3.2 11.3 0.28 0.71 0.71 96 1005.7
20260506153501 15 176 3.2 14.5 0.28 0.71 0.71 96 1005.8
20260506153103 15 108 3.2 14.5 0.30 0.71 0.71 96 1005.9
20260506152559 15 138 3.2 8.0 0.30 0.69 0.69 96 1006.1
20260506152058 15 168 1.6 8.0 0.28 0.66 0.66 96 1006.2
20260506151556 15 172 1.6 8.0 0.25 0.64 0.64 95 1006.4
20260506151100 15 172 0.0 4.8 0.23 0.58 0.58 95 1006.6
20260506150555 15 122 1.6 6.4 0.23 0.56 0.56 95 1006.8
20260506150054 15 201 1.6 6.4 0.23 0.53 0.53 95 1007.0
20260506145553 15 177 1.6 6.4 0.23 0.51 0.51 94 1007.1
20260506145056 15 117 0.0 8.0 0.23 0.48 0.48 94 1007.2
20260506144602 15 139 3.2 17.7 0.23 0.46 0.46 94 1007.2
20260506144051 15 148 4.8 17.7 0.25 0.46 0.46 94 1007.1
20260506143549 16 203 3.2 11.3 0.25 0.43 0.43 94 1006.9
20260506143048 16 207 3.2 11.3 0.23 0.41 0.41 93 1006.7
20260506142549 16 126 3.2 9.7 0.20 0.38 0.38 93 1006.5
20260506142046 16 151 0.0 8.0 0.20 0.38 0.38 94 1006.5
20260506141545 16 171 1.6 6.4 0.20 0.38 0.38 94 1006.7
20260506141046 15 131 0.0 6.4 0.20 0.36 0.36 94 1006.4
20260506140544 15 169 0.0 6.4 0.18 0.33 0.33 94 1006.5
20260506140046 15 144 0.0 8.0 0.18 0.30 0.30 94 1006.4
20260506135541 15 133 0.0 4.8 0.15 0.28 0.28 94 1006.5
20260506135041 15 153 0.0 4.8 0.13 0.25 0.25 93 1006.5
20260506134539 15 121 0.0 3.2 0.13 0.23 0.23 93 1006.5
20260506134040 16 139 0.0 1.6 0.10 0.20 0.20 93 1006.8
20260506133539 16 135 0.0 1.6 0.08 0.18 0.18 93 1006.8
20260506133037 16 153 0.0 1.6 0.10 0.18 0.18 93 1006.8
20260506132536 16 118 0.0 3.2 0.10 0.18 0.18 93 1006.8
20260506132039 16 102 0.0 3.2 0.13 0.18 0.18 92 1006.7
20260506131536 16 151 0.0 4.8 0.13 0.18 0.18 92 1006.7
20260506131034 16 146 0.0 6.4 0.10 0.15 0.15 91 1006.8
20260506130533 16 129 1.6 6.4 0.10 0.15 0.15 91 1006.8
20260506130033 16 174 1.6 6.4 0.08 0.13 0.13 91 1007.1
20260506125531 16 157 1.6 6.4 0.08 0.13 0.13 91 1007.1
20260506125031 16 148 0.0 4.8 0.10 0.13 0.13 91 1007.1
20260506124531 16 144 0.0 3.2 0.08 0.10 0.10 90 1007.1
20260506124029 16 131 0.0 3.2 0.08 0.10 0.10 90 1007.2
20260506123528 16 182 0.0 4.8 0.10 0.10 0.10 90 1007.2
20260506123030 16 128 0.0 8.0 0.08 0.08 0.08 89 1007.2
20260506122526 16 173 1.6 8.0 0.08 0.08 0.08 89 1007.3
20260506122024 16 193 0.0 9.7 0.05 0.05 0.05 89 1007.3
20260506121526 16 155 1.6 9.7 0.05 0.05 0.05 89 1007.3
20260506121024 16 173 0.0 4.8 0.05 0.05 0.05 88 1007.1
20260506120522 16 145 0.0 8.0 0.05 0.05 0.05 88 1007.0
20260506120033 16 158 1.6 8.0 0.05 0.05 0.05 88 1006.8
20260506115520 16 158 0.0 3.2 0.05 0.05 0.05 87 1006.8
20260506115018 16 176 0.0 8.0 0.03 0.03 0.03 86 1006.7
20260506114515 16 168 0.0 8.0 0.03 0.03 0.03 86 1006.6
20260506114014 16 160 0.0 8.0 0.03 0.03 0.03 85 1006.6
20260506113512 16 157 1.6 9.7 0.00 0.00 0.00 84 1006.6
20260506113021 17 143 1.6 9.7 0.00 0.00 0.00 83 1006.6
20260506112510 17 190 1.6 9.7 0.00 0.00 0.00 82 1006.5
20260506112011 17 174 3.2 9.7 0.00 0.00 0.00 81 1006.5
20260506111507 17 156 3.2 9.7 0.00 0.00 0.00 80 1006.3
20260506111010 17 146 1.6 12.9 0.00 0.00 0.00 80 1006.3
20260506110507 17 159 4.8 12.9 0.00 0.00 0.00 80 1006.2
20260506110008 17 127 3.2 12.9 0.00 0.00 0.00 79 1006.2
20260506105504 17 148 1.6 12.9 0.00 0.00 0.00 79 1006.2
20260506105002 17 165 3.2 11.3 0.00 0.00 0.00 78 1006.2
20260506104502 17 238 3.2 12.9 0.00 0.00 0.00 78 1006.2
20260506104000 17 148 4.8 12.9 0.00 0.00 0.00 78 1006.0
20260506103501 17 204 1.6 11.3 0.00 0.00 0.00 78 1006.0
20260506103125 17 161 3.2 11.3 0.00 0.00 0.00 78 1005.9
20260506102600 17 158 3.2 9.7 0.00 0.00 0.00 77 1005.9
20260506102102 17 130 3.2 14.5 0.00 0.00 0.00 77 1005.9
20260506101558 17 146 3.2 14.5 0.00 0.00 0.00 77 1005.9
20260506101058 17 194 3.2 12.9 0.00 0.00 0.00 78 1005.9
20260506100558 17 156 1.6 9.7 0.00 0.00 0.00 78 1005.9
20260506100057 17 135 1.6 14.5 0.00 0.00 0.00 78 1005.8
20260506095556 17 136 1.6 4.8 0.00 0.00 0.00 77 1005.8
20260506095057 17 113 1.6 8.0 0.00 0.00 0.00 77 1005.8
20260506094601 17 134 1.6 8.0 0.00 0.00 0.00 77 1005.8
20260506094053 17 105 0.0 6.4 0.00 0.00 0.00 77 1005.8
20260506093652 17 140 0.0 12.9 0.00 0.00 0.00 77 1005.8
20260506093051 17 120 1.6 12.9 0.00 0.00 0.00 76 1005.9
20260506092550 17 146 1.6 6.4 0.00 0.00 0.00 76 1006.0
20260506092049 17 170 1.6 6.4 0.00 0.00 0.00 76 1005.9
20260506091549 17 158 1.6 8.0 0.00 0.00 0.00 76 1005.9
20260506091048 17 136 3.2 8.0 0.00 0.00 0.00 76 1005.9
20260506090549 17 154 3.2 9.7 0.00 0.00 0.00 76 1006.1
20260506090051 17 168 3.2 9.7 0.00 0.00 0.00 76 1006.0
20260506085545 17 136 1.6 8.0 0.00 0.00 0.00 76 1006.0
20260506085043 17 158 3.2 12.9 0.00 0.00 0.00 75 1006.0
20260506084559 17 80 1.6 12.9 0.00 0.00 0.00 75 1006.1
20260506084041 17 136 1.6 3.2 0.00 0.00 0.00 75 1006.2
20260506083540 17 158 0.0 6.4 0.00 0.00 0.00 74 1006.2
20260506083041 17 177 1.6 9.7 0.00 0.00 0.00 73 1006.2
20260506082538 17 128 1.6 9.7 0.00 0.00 0.00 73 1006.1
20260506082037 17 138 0.0 8.0 0.00 0.00 0.00 72 1006.2
20260506081541 17 134 0.0 8.0 0.00 0.00 0.00 72 1006.2
20260506081035 18 128 0.0 6.4 0.00 0.00 0.00 71 1006.1
20260506080535 18 165 1.6 8.0 0.00 0.00 0.00 71 1006.1
20260506073528 18 159 0.0 6.4 0.00 0.00 0.00 69 1006.4
20260506073027 18 143 1.6 9.7 0.00 0.00 0.00 68 1006.3
20260506072525 18 139 0.0 6.4 0.00 0.00 0.00 68 1006.3
20260506072024 18 134 1.6 11.3 0.00 0.00 0.00 68 1006.4
20260506071524 18 169 1.6 9.7 0.00 0.00 0.00 67 1006.5
20260506071026 18 130 1.6 9.7 0.00 0.00 0.00 67 1006.4
20260506070521 18 110 1.6 8.0 0.00 0.00 0.00 66 1006.5
20260506062512 18 155 3.2 8.0 0.00 0.00 0.00 64 1007.0
20260506062013 18 146 3.2 19.3 0.00 0.00 0.00 64 1007.0
20260506061515 18 111 1.6 19.3 0.00 0.00 0.00 64 1007.1
20260506061010 18 136 0.0 6.4 0.00 0.00 0.00 64 1007.2
20260506060509 18 158 1.6 6.4 0.00 0.00 0.00 64 1007.2
20260506051057 18 131 1.6 8.0 0.00 0.00 0.00 62 1007.8
20260506050600 18 145 1.6 6.4 0.00 0.00 0.00 62 1007.8
20260506050110 18 131 1.6 6.4 0.00 0.00 0.00 62 1007.7
20260506045055 18 150 0.0 8.0 0.00 0.00 0.00 62 1007.8
20260506044554 18 169 1.6 8.0 0.00 0.00 0.00 61 1007.8
20260506044051 19 167 1.6 6.4 0.00 0.00 0.00 61 1007.7
20260506043549 19 163 1.6 6.4 0.00 0.00 0.00 61 1007.6
20260506043055 19 118 0.0 6.4 0.00 0.00 0.00 61 1007.6
20260506042548 19 168 1.6 6.4 0.00 0.00 0.00 60 1007.8
20260506042048 19 207 1.6 9.7 0.00 0.00 0.00 60 1007.8
20260506041546 19 188 1.6 8.0 0.00 0.00 0.00 60 1007.8
20260506041047 19 103 1.6 6.4 0.00 0.00 0.00 60 1007.8
20260506040544 19 133 0.0 14.5 0.00 0.00 0.00 60 1007.7
20260506040046 19 166 1.6 14.5 0.00 0.00 0.00 60 1007.8
20260506035542 19 150 0.0 9.7 0.00 0.00 0.00 61 1007.7
20260506035042 19 176 0.0 8.0 0.00 0.00 0.00 61 1007.8
20260506034543 19 158 1.6 6.4 0.00 0.00 0.00 61 1007.9
20260506034040 18 121 1.6 6.4 0.00 0.00 0.00 61 1007.8
20260506033539 18 146 0.0 4.8 0.00 0.00 0.00 61 1007.7
20260506033044 18 110 0.0 4.8 0.00 0.00 0.00 61 1007.7
20260506032539 18 113 0.0 4.8 0.00 0.00 0.00 61 1007.7
20260506032038 18 141 0.0 6.4 0.00 0.00 0.00 61 1007.7
20260506031546 18 139 0.0 6.4 0.00 0.00 0.00 61 1007.7
20260506031035 18 123 1.6 4.8 0.00 0.00 0.00 60 1007.7
20260506030537 19 187 0.0 3.2 0.00 0.00 0.00 60 1007.7
20260506030034 19 131 0.0 3.2 0.00 0.00 0.00 60 1007.7
20260506025534 19 143 0.0 4.8 0.00 0.00 0.00 59 1007.6
20260506025033 19 147 0.0 4.8 0.00 0.00 0.00 59 1007.7
20260506024541 19 126 0.0 4.8 0.00 0.00 0.00 59 1007.6
20260506024032 19 157 0.0 4.8 0.00 0.00 0.00 58 1007.8
20260506023532 19 161 0.0 4.8 0.00 0.00 0.00 58 1007.7
20260506023131 20 116 0.0 3.2 0.00 0.00 0.00 57 1007.7
20260506022530 20 131 0.0 6.4 0.00 0.00 0.00 57 1007.7
20260506022032 20 147 0.0 6.4 0.00 0.00 0.00 56 1007.6
20260506021529 20 119 0.0 4.8 0.00 0.00 0.00 56 1007.5
20260506021127 20 115 0.0 4.8 0.00 0.00 0.00 56 1007.6
20260506020525 20 94 0.0 3.2 0.00 0.00 0.00 55 1007.6
20260506020026 20 153 0.0 4.8 0.00 0.00 0.00 55 1007.5
20260506015529 20 162 0.0 4.8 0.00 0.00 0.00 55 1007.6
20260506015025 20 133 0.0 4.8 0.00 0.00 0.00 54 1007.5
20260506014527 21 143 0.0 4.8 0.00 0.00 0.00 54 1007.5
20260506014028 21 135 0.0 4.8 0.00 0.00 0.00 53 1007.5
20260506013524 21 146 0.0 4.8 0.00 0.00 0.00 53 1007.5
20260506013023 21 148 1.6 4.8 0.00 0.00 0.00 52 1007.3
20260506012523 21 142 0.0 4.8 0.00 0.00 0.00 52 1007.3
20260506012021 21 107 0.0 4.8 0.00 0.00 0.00 51 1007.3
20260506011520 22 130 0.0 4.8 0.00 0.00 0.00 50 1007.2
20260506011020 22 118 0.0 6.4 0.00 0.00 0.00 48 1007.1
20260506010519 22 153 0.0 6.4 0.00 0.00 0.00 46 1007.1
20260506010018 23 159 1.6 9.7 0.00 0.00 0.00 45 1006.9
20260506005517 23 150 3.2 9.7 0.00 0.00 0.00 44 1006.9
20260506005017 23 158 3.2 9.7 0.00 0.00 0.00 43 1006.9
20260506004516 23 139 3.2 14.5 0.00 0.00 0.00 44 1006.8
20260506004015 23 134 1.6 11.3 0.00 0.00 0.00 44 1006.8
20260506003515 23 128 1.6 9.7 0.00 0.00 0.00 44 1006.7
20260506003014 23 168 3.2 9.7 0.00 0.00 0.00 44 1006.6
20260506002514 23 168 1.6 9.7 0.00 0.00 0.00 43 1006.6
20260506002012 23 162 3.2 9.7 0.00 0.00 0.00 44 1006.7
20260506001512 23 221 1.6 9.7 0.00 0.00 0.00 44 1006.7
20260506001011 23 213 4.8 11.3 0.00 0.00 0.00 43 1006.6
20260506000510 23 188 4.8 11.3 0.00 0.00 0.00 42 1006.5
20260506000010 23 139 1.6 8.0 0.00 0.00 0.00 43 1006.4
20260505235508 24 160 3.2 8.0 0.00 0.00 0.00 42 1006.3
20260505235007 24 175 1.6 8.0 0.00 0.00 0.00 42 1006.3
20260505234507 24 165 1.6 12.9 0.00 0.00 0.00 42 1006.2
20260505234004 24 166 3.2 12.9 0.00 0.00 0.00 41 1006.2
20260505233506 24 242 1.6 8.0 0.00 0.00 0.00 41 1006.1
20260505233106 24 236 3.2 8.0 0.00 0.00 0.00 40 1006.1
20260505232503 25 205 1.6 11.3 0.00 0.00 0.00 40 1006.0
20260505232003 25 144 0.0 4.8 0.00 0.00 0.00 41 1006.0